Location: Aranbee
(34.0885°N, 118.2342°W)
Time: 23:39:15
(UTC+00:00)

A-11 Canister half - Pass Details

Date: 30 July 2021
Orbit: 1515 x 1685 km, 47.2° (Epoch: 22 September)

Event Time Altitude Azimuth Distance (km) Brightness Sun altitude
Rises 05:59:45 0° 301° (WNW) 4,904 12.6 -30.2°
Reaches altitude 10° 06:03:04 10° 307° (NW) 3,930 11.9 -30.6°
Maximum altitude 06:12:52 51° 21° (NNE) 2,049 9.7 -31.7°
Enters shadow 06:18:47 26° 84° (E) 2,891 10.2 -32.3°
